WZZ12 LATI-EDJA

Flight info

Callsign WZZ12
Flight time 1h 43m
Altitude 38000
Route INLOT L604 RETRA/N0433F380 DCT POD DCT NIK DCT GACMO DCT VRANA DCT ALIVO DCT VEKEN DCT INSEL DCT ERKIR L608 KPT KPT1C
Aircraft A20N/M-SDE2E3FGHIRWXY/LB1

Departure

Time 2026-04-25 07:16
Airport Tirana International Airport Mother Teresa (LATI)

Arrival

Time 2026-04-25 09:00
Airport Memmingen Allgau Airport (EDJA)
Time Latitude Longitude Altitude Speed Heading
2026-04-25 06:36 41.41988 19.71515 114 ft 0 kts 265°
2026-04-25 07:05 41.41989 19.71529 115 ft 3 kts 259°
2026-04-25 07:05 41.41995 19.71554 115 ft 3 kts 233°
2026-04-25 07:05 41.42009 19.71570 115 ft 3 kts 191°
2026-04-25 07:06 41.42020 19.71572 116 ft 1 kts 174°
2026-04-25 07:06 41.42023 19.71572 116 ft 0 kts 174°
2026-04-25 07:09 41.42020 19.71572 118 ft 5 kts 174°
2026-04-25 07:09 41.41955 19.71580 117 ft 12 kts 175°
2026-04-25 07:09 41.41863 19.71591 119 ft 15 kts 174°
2026-04-25 07:09 41.41752 19.71605 116 ft 17 kts 174°
2026-04-25 07:10 41.41631 19.71623 117 ft 18 kts 174°
2026-04-25 07:10 41.41499 19.71640 117 ft 20 kts 174°
2026-04-25 07:10 41.41356 19.71659 121 ft 21 kts 174°
2026-04-25 07:10 41.41204 19.71679 123 ft 23 kts 174°
2026-04-25 07:11 41.41043 19.71701 123 ft 24 kts 174°
2026-04-25 07:11 41.40874 19.71733 123 ft 25 kts 169°
2026-04-25 07:11 41.40717 19.71764 126 ft 19 kts 173°
2026-04-25 07:11 41.40579 19.71783 124 ft 21 kts 174°
2026-04-25 07:12 41.40427 19.71805 128 ft 23 kts 167°
2026-04-25 07:12 41.40245 19.72096 130 ft 21 kts 84°
2026-04-25 07:12 41.40280 19.72214 127 ft 3 kts
2026-04-25 07:13 41.40309 19.72213 125 ft 0 kts 354°
2026-04-25 07:15 41.40370 19.72204 127 ft 35 kts 354°
2026-04-25 07:15 41.40863 19.72136 126 ft 104 kts 354°
2026-04-25 07:16 41.41761 19.72014 120 ft 153 kts 354°
2026-04-25 07:16 41.42849 19.71868 631 ft 156 kts 354°
2026-04-25 07:16 41.43934 19.71599 1214 ft 160 kts 338°
2026-04-25 07:16 41.44935 19.70883 1783 ft 168 kts 329°
2026-04-25 07:17 41.45981 19.70075 2300 ft 181 kts 332°
2026-04-25 07:17 41.47169 19.69302 2727 ft 199 kts 337°
2026-04-25 07:17 41.48529 19.68562 3070 ft 222 kts 340°
2026-04-25 07:17 41.50044 19.67825 3503 ft 241 kts 341°
2026-04-25 07:18 41.51695 19.67058 3983 ft 259 kts 341°
2026-04-25 07:18 41.53412 19.66270 4731 ft 261 kts 341°
2026-04-25 07:18 41.55134 19.65478 5425 ft 263 kts 341°
2026-04-25 07:18 41.56872 19.64671 6153 ft 265 kts 341°
2026-04-25 07:19 41.58614 19.63857 6954 ft 267 kts 340°
2026-04-25 07:19 41.60384 19.63028 7784 ft 271 kts 340°
2026-04-25 07:19 41.62172 19.62190 8722 ft 274 kts 340°
2026-04-25 07:19 41.63982 19.61343 9643 ft 278 kts 340°
2026-04-25 07:20 41.65833 19.60475 10418 ft 289 kts 341°
2026-04-25 07:20 41.67804 19.59550 10734 ft 313 kts 341°
2026-04-25 07:20 41.69887 19.58574 11106 ft 332 kts 341°
2026-04-25 07:20 41.72089 19.57538 11809 ft 340 kts 341°
2026-04-25 07:21 41.74389 19.56459 12121 ft 359 kts 341°
2026-04-25 07:21 41.76736 19.55356 12622 ft 364 kts 341°
2026-04-25 07:21 41.79139 19.54224 13131 ft 368 kts 341°
2026-04-25 07:21 41.81564 19.53082 13665 ft 371 kts 341°
2026-04-25 07:22 41.84006 19.51930 14161 ft 374 kts 341°
2026-04-25 07:22 41.86470 19.50768 14632 ft 376 kts 341°
2026-04-25 07:22 41.88948 19.49598 15112 ft 378 kts 342°
2026-04-25 07:22 41.91437 19.48422 15599 ft 381 kts 342°
2026-04-25 07:23 41.93940 19.47238 16096 ft 383 kts 342°
2026-04-25 07:23 41.96467 19.46043 16585 ft 385 kts 342°
2026-04-25 07:23 41.99004 19.44842 17093 ft 388 kts 342°
2026-04-25 07:23 42.01564 19.43627 17618 ft 392 kts 342°
2026-04-25 07:24 42.04143 19.42403 18148 ft 395 kts 342°
2026-04-25 07:24 42.06748 19.41165 18645 ft 399 kts 342°
2026-04-25 07:24 42.09365 19.39920 19112 ft 401 kts 342°
2026-04-25 07:24 42.12004 19.38665 19591 ft 403 kts 342°
2026-04-25 07:25 42.14663 19.37399 20059 ft 406 kts 342°
2026-04-25 07:25 42.17334 19.36126 20562 ft 409 kts 342°
2026-04-25 07:25 42.20024 19.34843 21076 ft 411 kts 342°
2026-04-25 07:25 42.22720 19.33556 21597 ft 414 kts 342°
2026-04-25 07:26 42.25442 19.32223 22106 ft 417 kts 341°
2026-04-25 07:26 42.28172 19.30830 22636 ft 421 kts 340°
2026-04-25 07:26 42.30917 19.29416 23172 ft 424 kts 340°
2026-04-25 07:26 42.33677 19.27996 23710 ft 426 kts 341°
2026-04-25 07:27 42.36459 19.26568 24171 ft 429 kts 340°
2026-04-25 07:27 42.39187 19.24890 24642 ft 431 kts 333°
2026-04-25 07:27 42.41770 19.22809 25127 ft 433 kts 329°
2026-04-25 07:27 42.44327 19.20641 25602 ft 434 kts 330°
2026-04-25 07:28 42.46894 19.18482 26088 ft 435 kts 330°
2026-04-25 07:28 42.49463 19.16323 26585 ft 435 kts 330°
2026-04-25 07:28 42.52034 19.14157 27092 ft 434 kts 330°
2026-04-25 07:28 42.54597 19.11994 27606 ft 434 kts 330°
2026-04-25 07:29 42.57120 19.09860 28115 ft 433 kts 330°
2026-04-25 07:29 42.59670 19.07700 28649 ft 431 kts 330°
2026-04-25 07:29 42.62213 19.05545 29197 ft 429 kts 330°
2026-04-25 07:29 42.64732 19.03406 29755 ft 427 kts 330°
2026-04-25 07:30 42.67249 19.01268 30301 ft 425 kts 330°
2026-04-25 07:30 42.69750 18.99142 30778 ft 423 kts 330°
2026-04-25 07:30 42.72231 18.97031 31265 ft 420 kts 330°
2026-04-25 07:30 42.74704 18.94923 31765 ft 417 kts 330°
2026-04-25 07:31 42.77157 18.92830 32275 ft 414 kts 329°
2026-04-25 07:31 42.79492 18.90580 32791 ft 411 kts 326°
2026-04-25 07:31 42.81783 18.88292 33322 ft 406 kts 327°
2026-04-25 07:31 42.84054 18.86037 33860 ft 401 kts 327°
2026-04-25 07:32 42.86292 18.83815 34358 ft 395 kts 327°
2026-04-25 07:32 42.88495 18.81625 34831 ft 388 kts 327°
2026-04-25 07:32 42.90652 18.79476 35319 ft 381 kts 327°
2026-04-25 07:32 42.92772 18.77362 35747 ft 375 kts 327°
2026-04-25 07:33 42.94876 18.75264 35911 ft 376 kts 327°
2026-04-25 07:33 42.96995 18.73149 36054 ft 377 kts 327°
2026-04-25 07:33 42.99118 18.71027 36217 ft 378 kts 327°
2026-04-25 07:33 43.01215 18.68929 36363 ft 379 kts 327°
2026-04-25 07:34 43.03348 18.66792 36501 ft 380 kts 327°
2026-04-25 07:34 43.05485 18.64649 36644 ft 381 kts 327°
2026-04-25 07:34 43.07625 18.62501 36789 ft 382 kts 327°
2026-04-25 07:34 43.09763 18.60354 36989 ft 381 kts 327°
2026-04-25 07:35 43.11903 18.58201 37109 ft 383 kts 326°
2026-04-25 07:35 43.13971 18.55870 37220 ft 386 kts 320°
2026-04-25 07:35 43.15848 18.53229 37338 ft 389 kts 314°
2026-04-25 07:35 43.17575 18.50371 37460 ft 390 kts 313°
2026-04-25 07:36 43.19310 18.47509 37575 ft 391 kts 313°
2026-04-25 07:36 43.21059 18.44639 37692 ft 392 kts 313°
2026-04-25 07:36 43.24560 18.38886 37905 ft 394 kts 313°
2026-04-25 07:37 43.28068 18.33092 38091 ft 396 kts 313°
2026-04-25 07:37 43.31616 18.27218 38104 ft 403 kts 312°
2026-04-25 07:38 43.35226 18.21230 38108 ft 410 kts 312°
2026-04-25 07:38 43.38889 18.15139 38128 ft 415 kts 312°
2026-04-25 07:39 43.42528 18.09073 38110 ft 414 kts 312°
2026-04-25 07:39 43.46190 18.02959 38104 ft 414 kts 312°
2026-04-25 07:40 43.49851 17.96833 38103 ft 415 kts 312°
2026-04-25 07:40 43.53516 17.90690 38122 ft 416 kts 312°
2026-04-25 07:41 43.57191 17.84515 38132 ft 416 kts 312°
2026-04-25 07:41 43.60864 17.78331 38146 ft 417 kts 312°
2026-04-25 07:42 43.64533 17.72144 38145 ft 417 kts 311°
2026-04-25 07:42 43.68201 17.65941 38147 ft 417 kts 311°
2026-04-25 07:43 43.71872 17.59718 38139 ft 417 kts 311°
2026-04-25 07:43 43.75527 17.53514 38137 ft 416 kts 311°
2026-04-25 07:44 43.79376 17.47555 38123 ft 414 kts 315°
2026-04-25 07:44 43.83314 17.41743 38122 ft 413 kts 315°
2026-04-25 07:45 43.87210 17.35899 38130 ft 412 kts 314°
2026-04-25 07:45 43.91051 17.30080 38127 ft 411 kts 314°
2026-04-25 07:46 43.94902 17.24227 38102 ft 410 kts 314°
2026-04-25 07:46 43.98739 17.18385 38097 ft 409 kts 314°
2026-04-25 07:47 44.02563 17.12549 38103 ft 408 kts 314°
2026-04-25 07:47 44.06376 17.06719 38088 ft 407 kts 314°
2026-04-25 07:48 44.10179 17.00892 38073 ft 407 kts 314°
2026-04-25 07:48 44.13975 16.95064 38092 ft 406 kts 314°
2026-04-25 07:49 44.17760 16.89243 38089 ft 406 kts 314°
2026-04-25 07:49 44.21546 16.83404 38080 ft 406 kts 313°
2026-04-25 07:50 44.25327 16.77564 38090 ft 406 kts 313°
2026-04-25 07:50 44.29107 16.71712 38089 ft 406 kts 313°
2026-04-25 07:51 44.32890 16.65844 38086 ft 407 kts 313°
2026-04-25 07:51 44.36676 16.59959 38101 ft 407 kts 313°
2026-04-25 07:52 44.40437 16.54100 38098 ft 408 kts 313°
2026-04-25 07:52 44.44221 16.48192 38104 ft 408 kts 313°
2026-04-25 07:53 44.48010 16.42265 38114 ft 409 kts 313°
2026-04-25 07:53 44.51803 16.36319 38112 ft 410 kts 313°
2026-04-25 07:54 44.55599 16.30357 38116 ft 410 kts 313°
2026-04-25 07:54 44.59392 16.24385 38120 ft 410 kts 313°
2026-04-25 07:55 44.63185 16.18402 38137 ft 410 kts 312°
2026-04-25 07:55 44.66969 16.12419 38137 ft 409 kts 312°
2026-04-25 07:56 44.70744 16.06437 38120 ft 409 kts 312°
2026-04-25 07:56 44.74510 16.00456 38111 ft 408 kts 312°
2026-04-25 07:57 44.78267 15.94478 38110 ft 407 kts 312°
2026-04-25 07:57 44.81385 15.89508 38104 ft 407 kts 312°
2026-04-25 07:58 44.85120 15.83541 38093 ft 406 kts 312°
2026-04-25 07:58 44.88843 15.77584 38107 ft 404 kts 311°
2026-04-25 07:59 44.92555 15.71628 38102 ft 403 kts 311°
2026-04-25 07:59 44.96253 15.65683 38094 ft 403 kts 311°
2026-04-25 08:00 44.99939 15.59745 38092 ft 402 kts 311°
2026-04-25 08:00 45.03628 15.53790 38105 ft 404 kts 311°
2026-04-25 08:01 45.07363 15.47747 38095 ft 412 kts 311°
2026-04-25 08:01 45.11170 15.41573 38100 ft 420 kts 311°
2026-04-25 08:02 45.15009 15.35337 38100 ft 425 kts 311°
2026-04-25 08:02 45.18890 15.29016 38097 ft 425 kts 310°
2026-04-25 08:03 45.22767 15.22686 38096 ft 425 kts 310°
2026-04-25 08:03 45.26635 15.16357 38097 ft 426 kts 310°
2026-04-25 08:04 45.30539 15.09955 38092 ft 433 kts 310°
2026-04-25 08:04 45.34513 15.03424 38095 ft 438 kts 310°
2026-04-25 08:05 45.38492 14.96869 38089 ft 437 kts 310°
2026-04-25 08:05 45.42449 14.90335 38088 ft 436 kts 310°
2026-04-25 08:06 45.46404 14.83791 38082 ft 436 kts 310°
2026-04-25 08:06 45.50355 14.77242 38086 ft 436 kts 310°
2026-04-25 08:07 45.54571 14.71043 38083 ft 437 kts 317°
2026-04-25 08:07 45.59104 14.65288 38085 ft 436 kts 317°
2026-04-25 08:08 45.63632 14.59513 38093 ft 436 kts 317°
2026-04-25 08:08 45.68132 14.53751 38082 ft 434 kts 316°
2026-04-25 08:09 45.72633 14.47968 38094 ft 435 kts 316°
2026-04-25 08:09 45.77103 14.42212 38084 ft 435 kts 316°
2026-04-25 08:10 45.81595 14.36417 38079 ft 434 kts 316°
2026-04-25 08:10 45.86082 14.30614 38081 ft 435 kts 316°
2026-04-25 08:11 45.90577 14.24788 38086 ft 435 kts 316°
2026-04-25 08:11 45.95065 14.18957 38087 ft 435 kts 316°
2026-04-25 08:12 45.99552 14.13114 38093 ft 435 kts 316°
2026-04-25 08:12 46.04039 14.07259 38079 ft 435 kts 316°
2026-04-25 08:13 46.08516 14.01403 38077 ft 435 kts 316°
2026-04-25 08:14 46.15216 13.92615 38069 ft 432 kts 315°
2026-04-25 08:14 46.19664 13.86761 38083 ft 433 kts 315°
2026-04-25 08:15 46.24111 13.80897 38076 ft 432 kts 315°
2026-04-25 08:15 46.28551 13.75028 38089 ft 433 kts 315°
2026-04-25 08:16 46.33002 13.69133 38083 ft 435 kts 315°
2026-04-25 08:16 46.37460 13.63213 38078 ft 434 kts 315°
2026-04-25 08:17 46.41884 13.57323 38105 ft 433 kts 315°
2026-04-25 08:17 46.46293 13.51442 38100 ft 432 kts 315°
2026-04-25 08:18 46.50720 13.45527 38075 ft 433 kts 315°
2026-04-25 08:18 46.55147 13.39598 38076 ft 433 kts 314°
2026-04-25 08:19 46.59265 13.33229 38086 ft 432 kts 309°
2026-04-25 08:19 46.63269 13.26754 38085 ft 429 kts 309°
2026-04-25 08:20 46.67264 13.20284 38080 ft 430 kts 309°
2026-04-25 08:20 46.71248 13.13799 38080 ft 430 kts 309°
2026-04-25 08:21 46.75231 13.07296 38083 ft 430 kts 309°
2026-04-25 08:21 46.79218 13.00768 38085 ft 431 kts 309°
2026-04-25 08:22 46.83201 12.94233 38093 ft 430 kts 309°
2026-04-25 08:22 46.87159 12.87725 38108 ft 422 kts 308°
2026-04-25 08:22 46.89071 12.84580 38100 ft 410 kts 308°
2026-04-25 08:23 46.90962 12.81458 38104 ft 412 kts 308°
2026-04-25 08:23 46.94790 12.75124 38104 ft 416 kts 308°
2026-04-25 08:24 46.98589 12.68834 38115 ft 415 kts 308°
2026-04-25 08:24 47.02409 12.62493 38111 ft 415 kts 308°
2026-04-25 08:25 47.06243 12.56114 38122 ft 416 kts 308°
2026-04-25 08:25 47.10062 12.49741 38124 ft 417 kts 308°
2026-04-25 08:26 47.13898 12.43337 37818 ft 416 kts 309°
2026-04-25 08:26 47.15972 12.40357 37288 ft 420 kts 316°
2026-04-25 08:26 47.18294 12.37714 36761 ft 425 kts 322°
2026-04-25 08:26 47.20728 12.35235 36243 ft 426 kts 321°
2026-04-25 08:27 47.23158 12.32731 35730 ft 427 kts 321°
2026-04-25 08:27 47.25596 12.30208 35237 ft 429 kts 321°
2026-04-25 08:27 47.28045 12.27672 34750 ft 432 kts 321°
2026-04-25 08:27 47.30506 12.25122 34273 ft 434 kts 321°
2026-04-25 08:28 47.32965 12.22573 33747 ft 435 kts 321°
2026-04-25 08:28 47.35459 12.19986 33209 ft 436 kts 322°
2026-04-25 08:28 47.37933 12.17418 32700 ft 437 kts 321°
2026-04-25 08:28 47.40432 12.14821 32175 ft 439 kts 321°
2026-04-25 08:29 47.42935 12.12216 31674 ft 441 kts 321°
2026-04-25 08:29 47.45418 12.09629 31165 ft 443 kts 321°
2026-04-25 08:29 47.47942 12.06997 30682 ft 445 kts 322°
2026-04-25 08:29 47.50413 12.04277 30189 ft 441 kts 315°
2026-04-25 08:30 47.52464 12.00978 29624 ft 433 kts 303°
2026-04-25 08:30 47.53966 11.97175 29071 ft 425 kts 291°
2026-04-25 08:30 47.54885 11.93068 28531 ft 419 kts 280°
2026-04-25 08:30 47.55469 11.88852 27999 ft 417 kts 280°
2026-04-25 08:31 47.56057 11.84657 27465 ft 414 kts 280°
2026-04-25 08:31 47.56641 11.80498 26956 ft 411 kts 280°
2026-04-25 08:31 47.57222 11.76361 26460 ft 409 kts 280°
2026-04-25 08:31 47.57796 11.72246 25961 ft 407 kts 280°
2026-04-25 08:32 47.58364 11.68153 25475 ft 406 kts 280°
2026-04-25 08:32 47.58929 11.64069 24996 ft 403 kts 280°
2026-04-25 08:32 47.59489 11.60010 24523 ft 401 kts 280°
2026-04-25 08:32 47.60043 11.55978 24053 ft 399 kts 279°
2026-04-25 08:33 47.60595 11.51954 23584 ft 397 kts 280°
2026-04-25 08:33 47.61142 11.47952 23034 ft 394 kts 280°
2026-04-25 08:33 47.61681 11.44000 22501 ft 389 kts 280°
2026-04-25 08:33 47.62214 11.40081 21978 ft 387 kts 280°
2026-04-25 08:34 47.62722 11.36188 21462 ft 384 kts 279°
2026-04-25 08:34 47.63192 11.32307 20954 ft 381 kts 278°
2026-04-25 08:34 47.63648 11.28460 20444 ft 377 kts 278°
2026-04-25 08:34 47.64102 11.24630 19963 ft 381 kts 279°
2026-04-25 08:35 47.64574 11.20676 19480 ft 391 kts 279°
2026-04-25 08:35 47.65046 11.16740 19003 ft 384 kts 279°
2026-04-25 08:35 47.65511 11.12867 18539 ft 378 kts 279°
2026-04-25 08:35 47.65968 11.09064 18020 ft 371 kts 279°
2026-04-25 08:36 47.66415 11.05327 17497 ft 365 kts 279°
2026-04-25 08:36 47.66853 11.01645 16991 ft 360 kts 279°
2026-04-25 08:36 47.67279 10.98058 16507 ft 355 kts 279°
2026-04-25 08:36 47.67703 10.94482 16028 ft 354 kts 279°
2026-04-25 08:37 47.68124 10.90925 15558 ft 353 kts 279°
2026-04-25 08:37 47.68544 10.87351 15097 ft 349 kts 279°
2026-04-25 08:37 47.68959 10.83814 14636 ft 346 kts 280°
2026-04-25 08:37 47.69369 10.80308 14186 ft 343 kts 280°
2026-04-25 08:38 47.69772 10.76847 13720 ft 339 kts 280°
2026-04-25 08:38 47.70172 10.73416 13225 ft 335 kts 280°
2026-04-25 08:38 47.70566 10.70029 12732 ft 332 kts 280°
2026-04-25 08:38 47.70955 10.66682 12234 ft 324 kts 279°
2026-04-25 08:39 47.71329 10.63441 11756 ft 313 kts 279°
2026-04-25 08:39 47.71691 10.60306 11288 ft 304 kts 279°
2026-04-25 08:39 47.72041 10.57260 10825 ft 295 kts 279°
2026-04-25 08:39 47.72382 10.54293 10374 ft 288 kts 279°
2026-04-25 08:40 47.72714 10.51390 9917 ft 281 kts 279°
2026-04-25 08:40 47.73037 10.48556 9414 ft 276 kts 279°
2026-04-25 08:40 47.73357 10.45742 8917 ft 277 kts 279°
2026-04-25 08:40 47.73676 10.42939 8434 ft 273 kts 279°
2026-04-25 08:41 47.73991 10.40160 7965 ft 274 kts 279°
2026-04-25 08:41 47.74310 10.37359 7493 ft 277 kts 279°
2026-04-25 08:41 47.74706 10.34552 7024 ft 278 kts 287°
2026-04-25 08:41 47.75389 10.31862 6581 ft 279 kts 291°
2026-04-25 08:42 47.76108 10.29177 6103 ft 281 kts 291°
2026-04-25 08:42 47.76821 10.26490 5611 ft 276 kts 291°
2026-04-25 08:42 47.77513 10.23865 5292 ft 270 kts 290°
2026-04-25 08:42 47.78187 10.21303 5041 ft 263 kts 290°
2026-04-25 08:43 47.78836 10.18839 4779 ft 245 kts 290°
2026-04-25 08:43 47.79440 10.16539 4525 ft 241 kts 290°
2026-04-25 08:43 47.80045 10.14213 4322 ft 235 kts 290°
2026-04-25 08:43 47.80624 10.11989 4108 ft 229 kts 290°
2026-04-25 08:44 47.81274 10.09843 4014 ft 231 kts 303°
2026-04-25 08:44 47.82387 10.08212 4004 ft 214 kts 327°
2026-04-25 08:44 47.83669 10.07122 4023 ft 208 kts 329°
2026-04-25 08:44 47.84848 10.06096 4005 ft 189 kts 328°
2026-04-25 08:45 47.85960 10.05103 4001 ft 183 kts 328°
2026-04-25 08:45 47.87033 10.04145 4008 ft 180 kts 328°
2026-04-25 08:45 47.88162 10.03334 4004 ft 182 kts 345°
2026-04-25 08:45 47.89417 10.03267 4012 ft 184 kts
2026-04-25 08:46 47.90598 10.03979 4008 ft 185 kts 34°
2026-04-25 08:46 47.91493 10.05347 4009 ft 186 kts 58°
2026-04-25 08:46 47.92133 10.07023 4009 ft 186 kts 60°
2026-04-25 08:46 47.92792 10.08664 3966 ft 182 kts 57°
2026-04-25 08:47 47.93450 10.10264 3830 ft 182 kts 60°
2026-04-25 08:47 47.94098 10.11902 3705 ft 184 kts 59°
2026-04-25 08:47 47.94753 10.13543 3500 ft 182 kts 60°
2026-04-25 08:47 47.95370 10.15100 3277 ft 168 kts 59°
2026-04-25 08:48 47.95945 10.16544 3057 ft 157 kts 59°
2026-04-25 08:48 47.96479 10.17894 2850 ft 144 kts 59°
2026-04-25 08:48 47.96973 10.19138 2659 ft 138 kts 59°
2026-04-25 08:48 47.97298 10.19958 2521 ft 139 kts 59°
2026-04-25 08:49 47.97782 10.21191 2347 ft 137 kts 60°
2026-04-25 08:49 47.98267 10.22413 2142 ft 137 kts 59°
2026-04-25 08:49 47.98731 10.23580 2112 ft 127 kts 59°
2026-04-25 08:49 47.99453 10.25427 2430 ft 180 kts 60°
2026-04-25 08:50 47.99886 10.26552 2790 ft 194 kts 60°
2026-04-25 08:50 48.00590 10.28433 3509 ft 221 kts 60°
2026-04-25 08:50 48.01382 10.30579 4028 ft 260 kts 64°
2026-04-25 08:50 48.01831 10.33456 4000 ft 302 kts 90°
2026-04-25 08:51 48.01423 10.36419 4002 ft 285 kts 115°
2026-04-25 08:51 48.00401 10.38846 3993 ft 268 kts 136°
2026-04-25 08:51 47.98881 10.40218 3996 ft 248 kts 166°
2026-04-25 08:51 47.97239 10.40259 3994 ft 231 kts 198°
2026-04-25 08:52 47.95795 10.39469 3986 ft 217 kts 203°
2026-04-25 08:52 47.94427 10.38665 4002 ft 205 kts 205°
2026-04-25 08:52 47.93346 10.37307 4133 ft 216 kts 242°
2026-04-25 08:52 47.92771 10.35083 4505 ft 249 kts 257°
2026-04-25 08:53 47.92492 10.32439 4180 ft 262 kts 265°
2026-04-25 08:53 47.92317 10.29754 4016 ft 257 kts 263°
2026-04-25 08:53 47.91767 10.27210 4010 ft 263 kts 246°
2026-04-25 08:53 47.90906 10.24810 4015 ft 262 kts 239°
2026-04-25 08:54 47.90016 10.22458 4010 ft 259 kts 240°
2026-04-25 08:54 47.89027 10.20285 4001 ft 245 kts 234°
2026-04-25 08:54 47.88039 10.18319 4006 ft 230 kts 233°
2026-04-25 08:54 47.87093 10.16429 4010 ft 231 kts 234°
2026-04-25 08:55 47.86135 10.14504 4004 ft 229 kts 234°
2026-04-25 08:55 47.85504 10.12398 4020 ft 223 kts 263°
2026-04-25 08:55 47.85718 10.10209 4002 ft 209 kts 296°
2026-04-25 08:55 47.86617 10.08655 4031 ft 190 kts 326°
2026-04-25 08:56 47.87785 10.08034 4013 ft 178 kts 353°
2026-04-25 08:56 47.89043 10.08265 4009 ft 184 kts 15°
2026-04-25 08:56 47.90276 10.08787 4004 ft 184 kts 14°
2026-04-25 08:56 47.91507 10.09294 4006 ft 183 kts 14°
2026-04-25 08:57 47.92704 10.09921 3978 ft 182 kts 29°
2026-04-25 08:57 47.93657 10.11136 3815 ft 181 kts 50°
2026-04-25 08:57 47.94401 10.12690 3637 ft 190 kts 57°
2026-04-25 08:57 47.95069 10.14334 3396 ft 178 kts 60°
2026-04-25 08:58 47.95670 10.15855 3160 ft 165 kts 59°
2026-04-25 08:58 47.96243 10.17297 2936 ft 154 kts 60°
2026-04-25 08:58 47.96763 10.18610 2744 ft 146 kts 59°
2026-04-25 08:58 47.97299 10.19960 2520 ft 148 kts 59°
2026-04-25 08:59 47.97810 10.21247 2337 ft 146 kts 59°
2026-04-25 08:59 47.98327 10.22552 2129 ft 146 kts 59°
2026-04-25 08:59 47.98813 10.23772 2076 ft 107 kts 59°
2026-04-25 08:59 47.99115 10.24533 2068 ft 68 kts 59°
2026-04-25 09:00 47.99295 10.24991 2063 ft 36 kts 59°
2026-04-25 09:00 47.99386 10.25219 2059 ft 11 kts 59°
2026-04-25 09:00 47.99401 10.25295 2058 ft 4 kts 58°
2026-04-25 09:00 47.99429 10.25259 2058 ft 0 kts 301°
2026-04-25 09:01 47.99428 10.25255 2058 ft 1 kts 273°
2026-04-25 09:01 47.99380 10.25187 2060 ft 10 kts 221°
2026-04-25 09:01 47.99351 10.25132 2061 ft 7 kts 237°
2026-04-25 09:01 47.99322 10.25065 2062 ft 9 kts 237°
2026-04-25 09:02 47.99276 10.24950 2064 ft 28 kts 239°
2026-04-25 09:02 47.99166 10.24673 2066 ft 32 kts 239°
2026-04-25 09:02 47.99055 10.24390 2067 ft 32 kts 240°
2026-04-25 09:02 47.98944 10.24112 2070 ft 30 kts 239°
2026-04-25 09:03 47.98846 10.23868 2076 ft 22 kts 238°
2026-04-25 09:03 47.98871 10.23739 2078 ft 14 kts 325°
2026-04-25 09:03 47.98904 10.23604 2074 ft 17 kts 250°
2026-04-25 09:03 47.98871 10.23456 2079 ft 13 kts 253°
2026-04-25 09:04 47.98848 10.23357 2081 ft 0 kts 251°
2026-04-25 09:04 47.98845 10.23336 2081 ft 4 kts 265°
2026-04-25 09:04 47.98869 10.23305 2080 ft 5 kts 349°
2026-04-25 09:04 47.98884 10.23306 2079 ft 0 kts
2026-04-25 09:05 47.98885 10.23307 2079 ft 0 kts 19°
2026-04-25 09:05 47.98887 10.23310 2079 ft 2 kts 33°
2026-04-25 09:05 47.98891 10.23319 2079 ft 1 kts 57°
2026-04-25 09:05 47.98892 10.23325 2077 ft 0 kts 68°
2026-04-25 09:13 47.80908 10.10908 4067 ft 231 kts 292°
2026-04-25 09:13 47.98225 10.22308 2153 ft 137 kts 59°
2026-04-25 09:13 47.98686 10.23467 2103 ft 123 kts 59°
2026-04-25 09:14 47.98572 10.23171 2095 ft 138 kts 59°